Location: Dziadowski
(50.3833°N, 20.0333°E)
Time: 13:58:00
(UTC+00:00)

Cosmos 2369 Rocket - Visible Passes

Search period start: 19 April 2026 00:00
Search period end: 29 April 2026 00:00
Orbit: 829 x 850 km, 71.0° (Epoch: 19 April)

Date Brightness Start Highest point End Pass type
(mag) Time Alt. Az. Time Alt. Az. Time Alt. Az.
19 Apr 2.6 19:09:36 10° NNW 19:15:04 50° NE 19:18:36 21° ESE visible
19 Apr 3.3 20:53:57 10° NW 20:58:52 33° WSW 21:00:22 28° SW visible
20 Apr 2.7 18:53:52 10° NNW 18:59:18 47° NE 19:03:26 17° ESE visible
20 Apr 3.3 20:38:09 10° NW 20:43:09 35° WSW 20:45:13 26° SW visible
21 Apr 2.7 18:38:09 10° NNW 18:43:31 45° NE 18:48:18 13° ESE visible
21 Apr 3.2 20:22:21 10° NW 20:27:26 37° WSW 20:30:05 23° SSW visible
22 Apr 2.8 18:22:24 10° NNW 18:27:44 43° NE 18:33:03 10° ESE visible
22 Apr 3.2 20:06:34 10° NW 20:11:43 39° WSW 20:14:59 20° SSW visible
23 Apr 3.1 19:50:47 10° NW 19:55:59 41° WSW 19:59:56 17° S visible
24 Apr 3.1 19:35:00 10° NW 19:40:16 43° WSW 19:44:57 13° S visible
25 Apr 3.0 19:19:13 10° NW 19:24:33 46° WSW 19:29:50 10° S visible
26 Apr 3.0 19:03:26 10° NW 19:08:48 49° WSW 19:14:09 10° S visible
27 Apr 2.9 18:47:40 10° NW 18:53:05 52° WSW 18:58:28 10° S visible
28 Apr 2.9 18:31:53 10° NW 18:37:21 55° WSW 18:42:46 10° S visible
